Zurück zum Katalog

STARLINK-30528

AktivKommunikationVLEO
NORAD 57967·PAYLOAD·🇺🇸 United States

Gestartet Sep 30, 2023 von Cape Canaveral Space Force Station

Loading…

Nächste Überflüge (nächste 24 Stunden)

TLE

AktuellSource: CelesTrak SupGP

Epoche: Sep 15, 2026, 02:45 UTC

1 57967C 23151D   26258.11506944  .00037743  00000+0  13670-2 0  2589
2 57967  43.0028 346.0653 0001755 265.6631 269.9194 15.27560067    17

Verfolge STARLINK-30528 in Echtzeit mit AllMySat

Download on the App Store